Regional Weather Roundup
Issued by NWS

Home | Current Version | Previous Version | Graphics & Text | Print | Product List | Glossary On
Versions: 1 2 3 4 5 6 7 8 9 10 11 12 13 14 15 16 17 18 19 20 21 22 23 24 25 26 27 28 29 30 31 32 33 34 35 36 37 38 39 40 41 42 43 44 45 46 47 48 49 50
000
ASUS43 KLMK 291802
RWRKY
KENTUCKY REGIONAL WEATHER ROUNDUP
NATIONAL WEATHER SERVICE LOUISVILLE KY
200 PM EDT FRI MAY 29 2015

NOTE "FAIR" INDICATES FEW OR NO CLOUDS BELOW 12,000 FEET
WITH NO SIGNIFICANT WEATHER AND/OR OBSTRUCTIONS TO VISIBILITY.

KYZ001>023-026-027-061>063-070>075-291900-
WESTERN AND SOUTH CENTRAL KENTUCKY

CITY           SKY/WX    TMP DP  RH WIND       PRES   REMARKS
PADUCAH        PTSUNNY   80  68  66 S10       30.08F
HENDERSON      MOSUNNY   81  66  61 S9        30.08F
OWENSBORO      PTSUNNY   80  68  67 S14       30.12F
HOPKINSVILLE   PTSUNNY   78  68  69 S9        30.12F
BOWLING GREEN  CLOUDY    78  66  66 S12       30.15F
GLASGOW        NOT AVBL
$$

KYZ024-025-028>034-038-045-046-053-291900-
NORTH CENTRAL KENTUCKY

CITY           SKY/WX    TMP DP  RH WIND       PRES   REMARKS
LOUISVILLE/SDF PTSUNNY   80  65  59 S13       30.13F
LOUISVILLE/LOU PTSUNNY   80  66  62 S9        30.14F
FORT KNOX      PTSUNNY   77  67  71 S10       30.13F
$$

KYZ035>037-039>044-047>052-055>060-089>105-291900-
NORTHEAST KENTUCKY

CITY           SKY/WX    TMP DP  RH WIND       PRES   REMARKS
LEXINGTON      PTSUNNY   78  66  66 W10       30.17F
COVINGTON      PTSUNNY   79  67  66 S14       30.16F
FRANKFORT      CLOUDY    80  64  58 SW10G17   30.16F
$$

KYZ054-064>069-076>088-106>120-291900-
SOUTHEAST KENTUCKY

CITY           SKY/WX    TMP DP  RH WIND       PRES   REMARKS
JACKSON        MOSUNNY   83  64  52 CALM      30.21F
LONDON         PTSUNNY   82  59  45 SW9       30.20F
SOMERSET       NOT AVBL
MIDDLESBORO    NOT AVBL
MONTICELLO     MOCLDY    75  70  85 W6        30.22S HAZE
$$



USA.gov is the U.S. government's official web portal to all federal, state and local government web resources and services.